Home   Weather   Oberlin   Past weeks
Flag for USA

Past Weather in Oberlin, Ohio, USA — Yesterday and Last 2 Weeks

Now
20 °F

Sunny.


Feels Like: 5 °F
Forecast: 31 / -2 °F
Wind: 17 mph from South

Location: Lorain County Regional Airport

Current Time: Jan 22, 2019 at 2:20:03 pm

Latest Report: Jan 22, 2019 at 12:53 pm


Visibility: 10 mi

Pressure: 30.41 "Hg

Humidity: 48%

Dew Point: 3 °F

Location of OberlinLocation

Past Weather in Oberlin — Graph

°F

Oberlin Temperature Yesterday

Maximum temperature yesterday: 11 °F (at 2:18 pm)
Minimum temperature yesterday: -6 °F (at 10:53 pm)
Average temperature yesterday: 5 °F

High & Low Weather Summary for the Past Weeks

 TemperatureHumidityPressure
High55 °F (Jan 8, 11:53 am)85% (Jan 14, 7:53 am)30.66 "Hg (Jan 14, 7:53 am)
Low-6 °F (Jan 21, 10:53 pm)38% (Jan 7, 12:53 pm)29.60 "Hg (Jan 8, 3:00 pm)
Average26 °F70%30.16 "Hg
* Reported Jan 7 12:53 pm — Jan 22 12:53 pm, Oberlin. Weather by CustomWeather, © 2019

Note: Actual official high and low records may vary slightly from our data, if they occured in-between our weather recording intervals... More about our weather records

Advertising

Oberlin Weather History for the Previous 24 Hours

Scroll right to see more
 ConditionsComfort  
Time TempWeatherWind HumidityBarometerVisibility
12:53 pm
Tue, Jan 22
20 °FSunny.17 mph48%30.41 "Hg10 mi
11:53 am19 °FSunny.18 mph45%30.46 "Hg10 mi
10:53 am16 °FSunny.16 mph49%30.49 "Hg10 mi
9:53 am14 °FPassing clouds.16 mph56%30.53 "Hg10 mi
8:53 am12 °FSunny.15 mph56%30.54 "Hg10 mi
7:53 am11 °FOvercast.13 mph56%30.57 "Hg10 mi
6:53 am8 °FMostly cloudy.9 mph63%30.57 "Hg10 mi
5:53 am3 °FPassing clouds.8 mph69%30.59 "Hg10 mi
4:53 am1 °FClear.5 mph68%30.59 "Hg10 mi
3:53 am-1 °FClear.8 mph68%30.60 "Hg10 mi
2:53 am-2 °FClear.7 mph72%30.62 "Hg10 mi
1:53 am-3 °FClear.7 mph68%30.65 "Hg10 mi
12:53 am-3 °FClear.6 mphN/A30.64 "Hg10 mi
11:53 pm
Mon, Jan 21
-3 °FClear.7 mphN/A30.66 "Hg10 mi
10:53 pm-6 °FClear.No wind71%30.66 "Hg10 mi
9:53 pm-3 °FClear.3 mphN/A30.63 "Hg10 mi
8:53 pm0 °FClear.6 mph68%30.64 "Hg10 mi
7:53 pm2 °FClear.5 mph65%30.65 "Hg10 mi
6:53 pm3 °FClear.6 mph62%30.66 "Hg10 mi
6:23 pm4 °FPassing clouds.7 mph63%30.59 "Hg10 mi
5:29 pm8 °FOvercast.10 mph60%30.57 "Hg10 mi
4:53 pm9 °FOvercast.8 mph64%30.61 "Hg10 mi
3:53 pm9 °FPartly sunny.6 mph64%30.61 "Hg10 mi
2:53 pm10 °FPartly sunny.7 mph61%30.60 "Hg10 mi
2:34 pm10 °FScattered clouds.8 mph64%30.55 "Hg10 mi
2:18 pm11 °FOvercast.8 mph64%30.55 "Hg9 mi
Weather by CustomWeather, © 2019

See weather overview